| time (UTC) | temp C | wind direction | speed KPH | gust KPH | rain 1hr cm | rain 24hr cm | rain mn cm | humidity % | barometer mb |
| 20260906131542 | 22 | 49 | 6.4 | 14.5 | 0.00 | 0.00 | 0.00 | 85 | 1017.2 |
| 20260906130040 | 22 | 26 | 6.4 | 12.9 | 0.00 | 0.00 | 0.00 | 85 | 1017.3 |
| 20260906124607 | 22 | 2 | 1.6 | 8.0 | 0.00 | 0.00 | 0.00 | 85 | 1017.1 |
| 20260906123046 | 22 | 13 | 1.6 | 6.4 | 0.00 | 0.00 | 0.00 | 85 | 1016.8 |
| 20260906121601 | 21 | 291 | 0.0 | 4.8 | 0.00 | 0.00 | 0.00 | 86 | 1016.5 |
| 20260906120044 | 21 | 11 | 0.0 | 6.4 | 0.00 | 0.00 | 0.00 | 85 | 1016.4 |
| 20260906114542 | 21 | 354 | 0.0 | 3.2 | 0.00 | 0.00 | 0.00 | 86 | 1016.1 |
| 20260906113049 | 21 | 56 | 0.0 | 4.8 | 0.00 | 0.00 | 0.00 | 86 | 1015.7 |
| 20260906111552 | 21 | 350 | 1.6 | 4.8 | 0.00 | 0.00 | 0.00 | 86 | 1015.6 |
| 20260906110058 | 21 | 350 | 0.0 | 3.2 | 0.00 | 0.00 | 0.00 | 86 | 1015.7 |
| 20260906104600 | 21 | 350 | 0.0 | 3.2 | 0.00 | 0.00 | 0.00 | 86 | 1015.6 |
| 20260906103043 | 21 | 21 | 0.0 | 4.8 | 0.00 | 0.00 | 0.00 | 86 | 1015.5 |
| 20260906101547 | 21 | 100 | 0.0 | 6.4 | 0.00 | 0.00 | 0.00 | 85 | 1015.0 |
| 20260906100044 | 21 | 357 | 3.2 | 8.0 | 0.00 | 0.00 | 0.00 | 85 | 1015.3 |
| 20260906094552 | 21 | 43 | 3.2 | 6.4 | 0.00 | 0.00 | 0.00 | 85 | 1015.2 |
| 20260906093042 | 21 | 318 | 1.6 | 9.7 | 0.00 | 0.00 | 0.00 | 85 | 1015.0 |
| 20260906091541 | 21 | 50 | 3.2 | 11.3 | 0.00 | 0.00 | 0.00 | 84 | 1015.2 |
| 20260906090036 | 21 | 311 | 3.2 | 8.0 | 0.00 | 0.00 | 0.00 | 84 | 1015.2 |
| 20260906084544 | 21 | 358 | 3.2 | 9.7 | 0.00 | 0.00 | 0.00 | 83 | 1015.0 |
| 20260906083038 | 21 | 350 | 6.4 | 12.9 | 0.00 | 0.00 | 0.00 | 83 | 1015.1 |
| 20260906081538 | 21 | 21 | 3.2 | 8.0 | 0.00 | 0.00 | 0.00 | 83 | 1015.1 |
| 20260906080046 | 21 | 13 | 4.8 | 12.9 | 0.00 | 0.00 | 0.00 | 82 | 1015.0 |
| 20260906074536 | 21 | 340 | 4.8 | 12.9 | 0.00 | 0.00 | 0.00 | 82 | 1015.1 |
| 20260906073008 | 21 | 108 | 8.0 | 19.3 | 0.00 | 0.00 | 0.00 | 81 | 1015.3 |
| 20260906071508 | 22 | 1 | 8.0 | 17.7 | 0.00 | 0.00 | 0.00 | 81 | 1015.3 |
| 20260906070042 | 22 | 76 | 4.8 | 14.5 | 0.00 | 0.00 | 0.00 | 80 | 1015.4 |
| 20260906064546 | 22 | 54 | 3.2 | 11.3 | 0.00 | 0.00 | 0.00 | 80 | 1015.5 |
| 20260906063053 | 23 | 19 | 4.8 | 11.3 | 0.00 | 0.00 | 0.00 | 79 | 1015.5 |
| 20260906061618 | 23 | 77 | 3.2 | 9.7 | 0.00 | 0.00 | 0.00 | 78 | 1015.3 |
| 20260906061502 | 23 | 83 | 3.2 | 9.7 | 0.00 | 0.00 | 0.00 | 78 | 1015.3 |
| 20260906060050 | 23 | 47 | 4.8 | 14.5 | 0.00 | 0.00 | 0.00 | 78 | 1015.2 |
| 20260906054601 | 23 | 75 | 3.2 | 8.0 | 0.00 | 0.00 | 0.00 | 78 | 1015.0 |
| 20260906053058 | 24 | 10 | 3.2 | 8.0 | 0.00 | 0.00 | 0.00 | 78 | 1014.9 |
| 20260906051607 | 24 | 36 | 3.2 | 8.0 | 0.00 | 0.00 | 0.00 | 77 | 1014.7 |
| 20260906050100 | 25 | 79 | 3.2 | 8.0 | 0.00 | 0.00 | 0.00 | 77 | 1014.5 |
| 20260906044529 | 25 | 36 | 3.2 | 9.7 | 0.00 | 0.00 | 0.00 | 76 | 1014.5 |
| 20260906043039 | 25 | 350 | 6.4 | 16.1 | 0.00 | 0.00 | 0.00 | 77 | 1014.3 |
| 20260906041531 | 25 | 38 | 3.2 | 11.3 | 0.00 | 0.00 | 0.00 | 76 | 1014.2 |
| 20260906040033 | 25 | 13 | 3.2 | 12.9 | 0.00 | 0.00 | 0.00 | 76 | 1014.1 |
| 20260906034535 | 26 | 326 | 6.4 | 12.9 | 0.00 | 0.00 | 0.00 | 75 | 1013.9 |
| 20260906033029 | 26 | 356 | 4.8 | 16.1 | 0.00 | 0.00 | 0.00 | 74 | 1014.2 |
| 20260906031523 | 26 | 106 | 8.0 | 19.3 | 0.00 | 0.00 | 0.00 | 74 | 1014.0 |
| 20260906030003 | 27 | 38 | 6.4 | 22.5 | 0.00 | 0.00 | 0.00 | 74 | 1013.8 |
| 20260906024505 | 27 | 9 | 6.4 | 14.5 | 0.00 | 0.00 | 0.00 | 74 | 1013.7 |
| 20260906023109 | 28 | 27 | 6.4 | 12.9 | 0.00 | 0.00 | 0.00 | 74 | 1013.4 |
| 20260906021503 | 28 | 335 | 4.8 | 9.7 | 0.00 | 0.00 | 0.00 | 73 | 1013.1 |
| 20260906020002 | 28 | 340 | 4.8 | 14.5 | 0.00 | 0.00 | 0.00 | 73 | 1012.9 |
| 20260906014503 | 28 | 35 | 3.2 | 8.0 | 0.00 | 0.00 | 0.00 | 73 | 1012.6 |
| 20260906013043 | 29 | 18 | 0.0 | 4.8 | 0.00 | 0.00 | 0.00 | 72 | 1012.4 |
| 20260906011517 | 29 | 356 | 0.0 | 3.2 | 0.00 | 0.00 | 0.00 | 71 | 1012.4 |
| 20260906010011 | 30 | 6 | 1.6 | 4.8 | 0.00 | 0.00 | 0.00 | 70 | 1012.2 |
| 20260906004504 | 30 | 11 | 1.6 | 3.2 | 0.00 | 0.00 | 0.00 | 67 | 1012.0 |
| 20260906003013 | 31 | 5 | 0.0 | 3.2 | 0.00 | 0.00 | 0.00 | 66 | 1011.8 |
| 20260906001536 | 31 | 18 | 1.6 | 6.4 | 0.00 | 0.00 | 0.00 | 64 | 1011.9 |
| 20260906000023 | 31 | 354 | 1.6 | 8.0 | 0.00 | 0.00 | 0.00 | 63 | 1012.0 |
| 20260905234526 | 32 | 14 | 3.2 | 8.0 | 0.00 | 0.00 | 0.00 | 61 | 1011.9 |
| 20260905233029 | 32 | 13 | 1.6 | 11.3 | 0.00 | 0.00 | 0.00 | 61 | 1011.9 |
| 20260905231537 | 32 | 21 | 4.8 | 9.7 | 0.00 | 0.00 | 0.00 | 60 | 1012.0 |
| 20260905230037 | 32 | 299 | 4.8 | 16.1 | 0.00 | 0.00 | 0.00 | 57 | 1011.9 |
| 20260905224542 | 33 | 20 | 3.2 | 14.5 | 0.00 | 0.00 | 0.00 | 55 | 1011.7 |
| 20260905223032 | 33 | 34 | 1.6 | 8.0 | 0.00 | 0.00 | 0.00 | 55 | 1011.7 |
| 20260905221528 | 33 | 4 | 4.8 | 12.9 | 0.00 | 0.00 | 0.00 | 54 | 1011.7 |
| 20260905220022 | 33 | 307 | 3.2 | 12.9 | 0.00 | 0.00 | 0.00 | 54 | 1011.7 |
| 20260905214522 | 33 | 354 | 4.8 | 9.7 | 0.00 | 0.00 | 0.00 | 53 | 1011.7 |
| 20260905213030 | 33 | 306 | 4.8 | 11.3 | 0.00 | 0.00 | 0.00 | 52 | 1011.7 |
| 20260905211530 | 34 | 350 | 1.6 | 12.9 | 0.00 | 0.00 | 0.00 | 52 | 1011.8 |
| 20260905210034 | 34 | 304 | 3.2 | 12.9 | 0.00 | 0.00 | 0.00 | 50 | 1011.8 |
| 20260905204515 | 33 | 345 | 3.2 | 14.5 | 0.00 | 0.00 | 0.00 | 52 | 1012.0 |
| 20260905203025 | 34 | 232 | 1.6 | 14.5 | 0.00 | 0.00 | 0.00 | 50 | 1012.0 |
| 20260905201508 | 34 | 67 | 1.6 | 11.3 | 0.00 | 0.00 | 0.00 | 49 | 1012.2 |
| 20260905200104 | 35 | 324 | 4.8 | 14.5 | 0.00 | 0.00 | 0.00 | 48 | 1012.2 |
| 20260905194502 | 36 | 48 | 8.0 | 14.5 | 0.00 | 0.00 | 0.00 | 44 | 1012.1 |
| 20260905193058 | 37 | 100 | 1.6 | 4.8 | 0.00 | 0.00 | 0.00 | 43 | 1012.3 |
| 20260905191549 | 37 | 277 | 1.6 | 4.8 | 0.00 | 0.00 | 0.00 | 43 | 1012.4 |
| 20260905190057 | 36 | 276 | 1.6 | 4.8 | 0.00 | 0.00 | 0.00 | 44 | 1012.5 |
| 20260905184551 | 36 | 196 | 0.0 | 14.5 | 0.00 | 0.00 | 0.00 | 45 | 1012.7 |
| 20260905183054 | 37 | 2 | 4.8 | 12.9 | 0.00 | 0.00 | 0.00 | 42 | 1012.9 |
| 20260905181549 | 36 | 340 | 1.6 | 6.4 | 0.00 | 0.00 | 0.00 | 45 | 1012.9 |
| 20260905180051 | 36 | 20 | 1.6 | 8.0 | 0.00 | 0.00 | 0.00 | 45 | 1013.1 |
| 20260905174527 | 36 | 274 | 1.6 | 8.0 | 0.00 | 0.00 | 0.00 | 46 | 1013.2 |
| 20260905173022 | 35 | 269 | 0.0 | 8.0 | 0.00 | 0.00 | 0.00 | 46 | 1013.1 |
| 20260905171519 | 35 | 329 | 1.6 | 9.7 | 0.00 | 0.00 | 0.00 | 46 | 1013.3 |
| 20260905170020 | 35 | 270 | 1.6 | 11.3 | 0.00 | 0.00 | 0.00 | 47 | 1013.5 |
| 20260905164508 | 35 | 257 | 1.6 | 8.0 | 0.00 | 0.00 | 0.00 | 48 | 1013.6 |
| 20260905163006 | 35 | 215 | 0.0 | 6.4 | 0.00 | 0.00 | 0.00 | 49 | 1013.6 |
| 20260905161504 | 35 | 292 | 0.0 | 6.4 | 0.00 | 0.00 | 0.00 | 48 | 1013.5 |
| 20260905160044 | 35 | 345 | 0.0 | 6.4 | 0.00 | 0.00 | 0.00 | 49 | 1013.7 |
| 20260905154548 | 35 | 281 | 0.0 | 4.8 | 0.00 | 0.00 | 0.00 | 49 | 1013.7 |
| 20260905153047 | 35 | 217 | 0.0 | 3.2 | 0.00 | 0.00 | 0.00 | 49 | 1013.6 |
| 20260905151539 | 33 | 187 | 0.0 | 3.2 | 0.00 | 0.00 | 0.00 | 53 | 1013.5 |
| 20260905150014 | 32 | 231 | 0.0 | 3.2 | 0.00 | 0.00 | 0.00 | 54 | 1013.4 |
| 20260905144516 | 31 | 190 | 0.0 | 3.2 | 0.00 | 0.00 | 0.00 | 60 | 1013.3 |
| 20260905143102 | 30 | 190 | 0.0 | 1.6 | 0.00 | 0.00 | 0.00 | 68 | 1013.3 |
| 20260905141557 | 30 | 190 | 0.0 | 0.0 | 0.00 | 0.00 | 0.00 | 65 | 1013.5 |
| 20260905140103 | 29 | 190 | 0.0 | 0.0 | 0.00 | 0.00 | 0.00 | 66 | 1013.5 |
| 20260905134549 | 29 | 190 | 0.0 | 1.6 | 0.00 | 0.00 | 0.00 | 70 | 1013.5 |
| 20260905133038 | 27 | 190 | 0.0 | 1.6 | 0.00 | 0.00 | 0.00 | 74 | 1013.5 |